Weather in Ilek-Koshary

Russia / Belgorod Oblast     50°54′00″N   35°36′46″E
temp.,
°C
wind,
m/s
gust,
m/s
humid.,
%
clouds,
%
prec.,
mm/h
press.,
hPa
HPBL,
m
12 april, mon
mon1200:00+7ne41164100 0.0 1027244
03:00+6ne41165100 0.0 1026312
06:00+7ene51076100 0.2 1025376
09:00+9ene61082100 0.2 1024385
12:00+15e6968100 0.0 1022733
15:00+18e6851100 0.0 10211097
18:00+18e3554100 0.0 102098
21:00+14ese496654 0.0 1021146
13 april, tue
tue1300:00+12se476960 0.0 1022113
03:00+11ese3677100 0.0 102289
06:00+9ese348375 0.0 102246
09:00+13se5770100 0.0 1022413
12:00+17se695797 0.0 10211311
15:00+15se596477 0.0 1021673
18:00+15se486486 0.0 1020634
21:00+13se4969100 0.0 1021292
14 april, wed
wed1400:00+11se367999 0.0 1020150
03:00+11se348498 0.0 1020116
06:00+10se2489100 0.0 1019106
09:00+12se3479100 0.0 1018306
12:00+14s4570100 0.0 1018733
15:00+16sse566184 0.2 10171236
18:00+15s3562100 0.2 1016547
21:00+13se2473100 0.5 101790
15 april, thu
thu1500:00+12s2274100 0.0 101613
03:00+11e2277100 0.0 101631
06:00+10nne1180100 0.1 101611
09:00+12ne2574100 0.1 1015253
12:00+16e235399 0.3 1014655
15:00+18se1542100 0.3 10132116
18:00+14w466996 0.1 1012170
21:00+12n1173100 0.2 101216
16 april, fri
fri1600:00+12se3675100 0.0 1012195
03:00+11sse2585100 1.1 1011191
06:00+10se2292100 1.4 101182
09:00+11ssw5784100 2.3 1012420
12:00+15s4559100 0.2 10121436
15:00+16s2350100 0.3 10121513
18:00+14ene226382 1.4 1012127
21:00+11ne238186 3.1 101381